This is the latest recevied weather packets stored in our database for station/object KJ5BMY-13. If no packets are shown the sender has not sent any weather packets the latest 1 day(s).
| Time | Temp. | Humidity | Pressure | Rain* | Wind** | Luminosity | Snow |
|---|---|---|---|---|---|---|---|
| 1777989446 | 22.78° C | 84% | 1007.1 hPa | 0 mm | 0.89 m/s, 109° | - | - |
| 1777989142 | 22.78° C | 84% | 1006.9 hPa | 0 mm | 1.79 m/s, 114° | - | - |
| 1777988838 | 22.78° C | 84% | 1006.9 hPa | 0 mm | 0.89 m/s, 198° | - | - |
| 1777988536 | 22.78° C | 84% | 1007 hPa | 0 mm | 1.34 m/s, 48° | - | - |
| 1777988232 | 22.78° C | 84% | 1007.2 hPa | 0 mm | 2.24 m/s, 111° | - | - |
| 1777987929 | 22.78° C | 84% | 1007.2 hPa | 0 mm | 1.34 m/s, 158° | - | - |
| 1777987624 | 22.78° C | 84% | 1007.4 hPa | 0 mm | 0.45 m/s, 177° | - | - |
| 1777987322 | 22.78° C | 84% | 1007.4 hPa | 0 mm | 1.79 m/s, 156° | - | - |
| 1777987019 | 22.22° C | 84% | 1007.3 hPa | 0 mm | 0 m/s | - | - |
| 1777986716 | 22.22° C | 84% | 1007 hPa | 0 mm | 0.89 m/s, 229° | - | - |
| 1777986415 | 22.22° C | 84% | 1007 hPa | 0 mm | 0.45 m/s, 122° | - | - |
| 1777986113 | 22.22° C | 84% | 1006.9 hPa | 0 mm | 1.34 m/s, 106° | - | - |
| 1777985809 | 22.22° C | 85% | 1006.8 hPa | 0 mm | 0.45 m/s, 152° | - | - |
| 1777985506 | 22.22° C | 85% | 1006.8 hPa | 0 mm | 0.89 m/s, 228° | - | - |
| 1777985203 | 22.22° C | 85% | 1006.8 hPa | 0 mm | 0 m/s | - | - |
| 1777984899 | 22.22° C | 85% | 1006.7 hPa | 0 mm | 0.89 m/s, 144° | - | - |
| 1777984595 | 21.67° C | 85% | 1006.5 hPa | 0 mm | 1.34 m/s, 211° | - | - |
| 1777984292 | 21.67° C | 86% | 1006.6 hPa | 0 mm | 0.89 m/s, 133° | - | - |
| 1777983988 | 21.67° C | 86% | 1006.5 hPa | 0 mm | 0 m/s | - | - |
| 1777983686 | 21.67° C | 85% | 1006.5 hPa | 0 mm | 0.45 m/s, 58° | - | - |
| 1777983382 | 21.67° C | 86% | 1006.4 hPa | 0 mm | 0.89 m/s, 139° | - | - |
| 1777983079 | 21.67° C | 86% | 1006.5 hPa | 0 mm | 1.79 m/s, 211° | - | - |
| 1777982775 | 21.67° C | 86% | 1006.3 hPa | 0 mm | 1.79 m/s, 213° | - | - |
| 1777982472 | 21.67° C | 86% | 1006.4 hPa | 0 mm | 0.89 m/s, 184° | - | - |
| 1777982166 | 21.67° C | 86% | 1006.3 hPa | 0 mm | 1.79 m/s, 17° | - | - |
* Rain latest hour (hover to see other rain measurements)
** Current wind speed in m/s (hover to see current wind gust speed)